Вернуться в каталог

SL-12 DEB

LostHEO
NORAD 44562·DEBRIS·🇷🇺 Russia

Запущен Sep 2, 2010 с Baikonur Cosmodrome

Loading…

Ближайшие Пролёты (ближайшие 24 часа)

TLE

УстаревшееSource: Space-Track

Эпоха: Dec 11, 2019, 07:01 UTC

1 44562U 10041AH  19345.29254252  .00234506  00000-0  15955+0 0  9994
2 44562  65.6774 254.1853 5786782  30.2209 353.2078  4.27788073    10

Отслеживайте SL-12 DEB в реальном времени с AllMySat

Download on the App Store